Погода в Ливиньо

Италия     46°32′15″N   10°08′13″E
темп.,
°C
ветер,
м/с
пор.,
м/с
влажн.,
%
обл.,
%
осадки,
мм/ч
давл.,
гПа
погр.,
м
23 января, сб
сб2301:00−6с2297100 6.4 99157
04:00−6с1197100 3.8 99626
07:00−9ссз559699 7.8 99697
10:00−11ссз559197 0.3 999243
13:00−9с448093 0.0 996457
16:00−9всв2288100 0.2 996233
19:00−14сз1193100 0.3 99722
22:00−14ссз3397100 0.1 99834
24 января, вс
вс2401:00−17ссз339180 0.1 99925
04:00−18ссз22740 0.0 99924
07:00−16ссз346788 0.0 100231
10:00−13ссз449395 0.1 1002137
13:00−10с347575 0.1 1002533
16:00−13с22490 0.0 100322
19:00−20ссз22350 0.0 100722
22:00−20юз11250 0.0 100620
25 января, пн
пн2501:00−19ссз2243100 0.0 100420
04:00−15ююз2348100 0.1 100324
07:00−17ссз2390100 0.1 100828
10:00−14ссз2290100 0.0 101075
13:00−10ссз5107192 0.4 10031513
16:00−12ссз227362 0.1 100428
19:00−18зсз228851 0.0 101621
22:00−19сз229154 0.0 101822
26 января, вт
вт2601:00−18ссз339856 0.3 101625
04:00−22сз33975 0.0 101824
07:00−19сз228559 0.0 102022
10:00−14сз228523 0.0 102178
13:00−12ссз225610 0.0 1018297
16:00−12сз227736 0.0 101926
19:00−18сз228032 0.0 102023
22:00−15ссз227998 0.0 102128
27 января, ср
ср2701:00−12зсз117099 0.0 102021
04:00−17ссз339276 0.0 102031
07:00−9зюз229698 2.1 101743
10:00−6сз51678100 3.4 10181986
13:00−6сз338258 0.1 1019319
16:00−7сз128690 0.0 101827
19:00−13ссз449570 0.4 102234
22:00−14ссз44920 0.0 102337